Terug naar catalogus

FENGYUN 1C DEB

ActiefSSO
NORAD 31685·DEBRIS·🇨🇳 China

Gelanceerd May 10, 1999 vanaf Taiyuan Satellite Launch Center

Loading…

Volgende Passages (komende 24 uur)

TLE

VerouderendSource: Space-Track

Epoch: Sep 9, 2026, 18:33 UTC

1 31685U 99025CCT 26252.77311729  .00000156  00000-0  11285-3 0  9994
2 31685  98.7113 273.5414 0016665 176.8813 183.2465 14.09742120989081

Volg FENGYUN 1C DEB in realtime met AllMySat

Download on the App Store